Time,TemperatureF,DewpointF,PressureIn,WindDirection,WindDirectionDegrees,WindSpeedMPH,WindSpeedGustMPH,Humidity,HourlyPrecipIn,Conditions,Clouds,dailyrainin,SoftwareType,DateUTC
2013-08-25 00:04:00,70.9,68.1,30.18,ESE,105,0.0,0.0,91,0.00,,,0.00,Wunderground v.1.15,2013-08-25 05:04:00,
2013-08-25 00:10:00,70.7,68.3,30.17,ESE,105,0.0,0.0,92,0.00,,,0.00,Wunderground v.1.15,2013-08-25 05:10:00,
2013-08-25 00:16:00,70.6,68.2,30.18,ESE,104,0.0,0.0,92,0.00,,,0.00,Wunderground v.1.15,2013-08-25 05:16:00,
2013-08-25 00:21:00,70.5,68.4,30.17,ESE,104,0.0,0.0,93,0.00,,,0.00,Wunderground v.1.15,2013-08-25 05:21:00,
2013-08-25 00:27:00,70.3,68.2,30.17,ESE,104,0.0,0.0,93,0.00,,,0.00,Wunderground v.1.15,2013-08-25 05:27:00,
2013-08-25 00:33:00,70.3,68.2,30.17,SE,127,0.0,0.0,93,0.00,,,0.00,Wunderground v.1.15,2013-08-25 05:33:00,
2013-08-25 00:39:00,70.2,68.1,30.18,SE,127,0.0,0.0,93,0.00,,,0.00,Wunderground v.1.15,2013-08-25 05:39:00,
2013-08-25 00:45:00,70.0,67.9,30.17,SE,127,0.0,0.0,93,0.00,,,0.00,Wunderground v.1.15,2013-08-25 05:45:00,
2013-08-25 00:51:00,70.1,68.0,30.18,ESE,118,0.0,0.0,93,0.00,,,0.00,Wunderground v.1.15,2013-08-25 05:51:00,
2013-08-25 00:57:00,70.1,68.0,30.18,ESE,118,0.0,0.0,93,0.00,,,0.00,Wunderground v.1.15,2013-08-25 05:57:00,
2013-08-25 01:02:00,70.0,67.9,30.17,ESE,119,0.0,0.0,93,0.00,,,0.00,Wunderground v.1.15,2013-08-25 06:02:00,
2013-08-25 01:08:00,69.7,67.6,30.17,ESE,119,0.0,0.0,93,0.00,,,0.00,Wunderground v.1.15,2013-08-25 06:08:00,
2013-08-25 01:14:00,69.6,67.5,30.18,ESE,118,0.0,0.0,93,0.00,,,0.00,Wunderground v.1.15,2013-08-25 06:14:00,
2013-08-25 01:19:00,69.4,67.3,30.18,ESE,118,0.0,0.0,93,0.00,,,0.00,Wunderground v.1.15,2013-08-25 06:19:00,
2013-08-25 01:25:00,69.6,67.5,30.18,ESE,119,0.0,0.0,93,0.00,,,0.00,Wunderground v.1.15,2013-08-25 06:25:00,
2013-08-25 01:31:00,69.5,67.4,30.18,ESE,118,0.0,0.0,93,0.00,,,0.00,Wunderground v.1.15,2013-08-25 06:31:00,
2013-08-25 01:37:00,69.3,67.2,30.18,ESE,119,0.0,0.0,93,0.00,,,0.00,Wunderground v.1.15,2013-08-25 06:37:00,
2013-08-25 01:43:00,69.2,67.1,30.18,ESE,119,0.0,0.0,93,0.00,,,0.00,Wunderground v.1.15,2013-08-25 06:43:00,
2013-08-25 01:49:00,69.0,66.9,30.18,ESE,119,0.0,0.0,93,0.00,,,0.00,Wunderground v.1.15,2013-08-25 06:49:00,
2013-08-25 01:55:00,69.0,67.2,30.18,ESE,118,0.0,0.0,94,0.00,,,0.00,Wunderground v.1.15,2013-08-25 06:55:00,
2013-08-25 02:00:00,69.0,67.2,30.18,ESE,118,0.0,0.0,94,0.00,,,0.00,Wunderground v.1.15,2013-08-25 07:00:00,
2013-08-25 02:05:00,69.0,66.9,30.18,ESE,118,0.0,0.0,93,0.00,,,0.00,Wunderground v.1.15,2013-08-25 07:05:00,
2013-08-25 02:10:00,68.8,67.0,30.18,ESE,119,0.0,0.0,94,0.00,,,0.00,Wunderground v.1.15,2013-08-25 07:10:00,
2013-08-25 02:15:00,68.7,66.9,30.18,ESE,119,0.0,0.0,94,0.00,,,0.00,Wunderground v.1.15,2013-08-25 07:15:00,
2013-08-25 02:20:00,68.5,66.7,30.18,ESE,119,0.0,0.0,94,0.00,,,0.00,Wunderground v.1.15,2013-08-25 07:20:00,
2013-08-25 02:25:00,68.3,66.5,30.18,ESE,118,0.0,0.0,94,0.00,,,0.00,Wunderground v.1.15,2013-08-25 07:25:00,
2013-08-25 02:30:00,68.1,66.6,30.18,ESE,119,0.0,0.0,95,0.00,,,0.00,Wunderground v.1.15,2013-08-25 07:30:00,
2013-08-25 02:35:00,68.1,66.6,30.18,ESE,118,0.0,0.0,95,0.00,,,0.00,Wunderground v.1.15,2013-08-25 07:35:00,
2013-08-25 02:40:00,68.0,66.5,30.18,ESE,118,0.0,0.0,95,0.00,,,0.00,Wunderground v.1.15,2013-08-25 07:40:00,
2013-08-25 02:45:00,68.0,66.5,30.18,ESE,119,0.0,0.0,95,0.00,,,0.00,Wunderground v.1.15,2013-08-25 07:45:00,
2013-08-25 02:50:00,68.0,66.5,30.18,ESE,118,0.0,0.0,95,0.00,,,0.00,Wunderground v.1.15,2013-08-25 07:50:00,
2013-08-25 02:55:00,68.0,66.5,30.18,ESE,118,0.0,0.0,95,0.00,,,0.00,Wunderground v.1.15,2013-08-25 07:55:00,
2013-08-25 03:00:00,68.1,66.6,30.18,ESE,118,0.0,0.0,95,0.00,,,0.00,Wunderground v.1.15,2013-08-25 08:00:00,
2013-08-25 03:05:00,68.0,66.5,30.18,ESE,112,0.0,0.0,95,0.00,,,0.00,Wunderground v.1.15,2013-08-25 08:05:00,
2013-08-25 03:10:00,68.2,66.7,30.18,East,93,0.0,0.0,95,0.00,,,0.00,Wunderground v.1.15,2013-08-25 08:10:00,
2013-08-25 03:15:00,68.4,66.6,30.18,East,93,0.0,0.0,94,0.00,,,0.00,Wunderground v.1.15,2013-08-25 08:15:00,
2013-08-25 03:20:00,68.5,66.4,30.18,East,91,0.0,0.0,93,0.00,,,0.00,Wunderground v.1.15,2013-08-25 08:20:00,
2013-08-25 03:25:00,68.4,66.3,30.18,East,89,0.0,0.0,93,0.00,,,0.00,Wunderground v.1.15,2013-08-25 08:25:00,
2013-08-25 03:30:00,68.4,66.3,30.18,East,89,0.0,0.0,93,0.00,,,0.00,Wunderground v.1.15,2013-08-25 08:30:00,
2013-08-25 03:35:00,68.5,66.4,30.18,East,89,0.0,0.0,93,0.00,,,0.00,Wunderground v.1.15,2013-08-25 08:35:00,
2013-08-25 03:40:00,68.6,66.2,30.19,East,89,0.0,0.0,92,0.00,,,0.00,Wunderground v.1.15,2013-08-25 08:40:00,
2013-08-25 03:45:00,68.5,66.1,30.19,East,88,0.0,0.0,92,0.00,,,0.00,Wunderground v.1.15,2013-08-25 08:45:00,
2013-08-25 03:50:00,68.6,66.2,30.19,East,87,0.0,0.0,92,0.00,,,0.00,Wunderground v.1.15,2013-08-25 08:50:00,
2013-08-25 03:55:00,68.5,66.1,30.20,East,87,0.0,0.0,92,0.00,,,0.00,Wunderground v.1.15,2013-08-25 08:55:00,
2013-08-25 04:01:00,68.1,66.0,30.19,East,89,0.0,0.0,93,0.00,,,0.00,Wunderground v.1.15,2013-08-25 09:01:00,
2013-08-25 04:06:00,68.1,66.0,30.20,East,87,0.0,0.0,93,0.00,,,0.00,Wunderground v.1.15,2013-08-25 09:06:00,
2013-08-25 04:11:00,68.2,66.1,30.20,East,86,0.0,0.0,93,0.00,,,0.00,Wunderground v.1.15,2013-08-25 09:11:00,
2013-08-25 04:16:00,68.1,66.0,30.20,East,86,0.0,0.0,93,0.00,,,0.00,Wunderground v.1.15,2013-08-25 09:16:00,
2013-08-25 04:21:00,68.0,65.9,30.20,East,86,0.0,0.0,93,0.00,,,0.00,Wunderground v.1.15,2013-08-25 09:21:00,
2013-08-25 04:26:00,67.9,65.8,30.20,East,86,0.0,0.0,93,0.00,,,0.00,Wunderground v.1.15,2013-08-25 09:26:00,
2013-08-25 04:31:00,67.7,65.9,30.20,East,88,0.0,0.0,94,0.00,,,0.00,Wunderground v.1.15,2013-08-25 09:31:00,
2013-08-25 04:36:00,67.6,65.8,30.20,East,87,0.0,0.0,94,0.00,,,0.00,Wunderground v.1.15,2013-08-25 09:36:00,
2013-08-25 04:41:00,67.6,65.8,30.21,East,88,0.0,0.0,94,0.00,,,0.00,Wunderground v.1.15,2013-08-25 09:41:00,
2013-08-25 04:46:00,67.6,65.8,30.21,East,87,0.0,0.0,94,0.00,,,0.00,Wunderground v.1.15,2013-08-25 09:46:00,
2013-08-25 04:51:00,67.6,65.8,30.21,East,88,0.0,0.0,94,0.00,,,0.00,Wunderground v.1.15,2013-08-25 09:51:00,
2013-08-25 04:56:00,67.4,65.6,30.21,East,87,0.0,0.0,94,0.00,,,0.00,Wunderground v.1.15,2013-08-25 09:56:00,
2013-08-25 05:01:00,67.5,65.7,30.21,East,87,0.0,0.0,94,0.00,,,0.00,Wunderground v.1.15,2013-08-25 10:01:00,
2013-08-25 05:06:00,67.5,65.7,30.21,East,88,0.0,0.0,94,0.00,,,0.00,Wunderground v.1.15,2013-08-25 10:06:00,
2013-08-25 05:11:00,67.5,65.7,30.21,SE,129,0.0,0.0,94,0.00,,,0.00,Wunderground v.1.15,2013-08-25 10:11:00,
2013-08-25 05:16:00,67.9,65.8,30.21,SE,134,0.0,0.0,93,0.00,,,0.00,Wunderground v.1.15,2013-08-25 10:16:00,
2013-08-25 05:21:00,68.4,66.0,30.21,SSE,163,0.0,0.0,92,0.00,,,0.00,Wunderground v.1.15,2013-08-25 10:21:00,
2013-08-25 05:26:00,68.4,66.0,30.22,ESE,113,0.0,0.0,92,0.00,,,0.00,Wunderground v.1.15,2013-08-25 10:26:00,
2013-08-25 05:31:00,68.5,65.8,30.22,ESE,123,0.0,0.0,91,0.00,,,0.00,Wunderground v.1.15,2013-08-25 10:31:00,
2013-08-25 05:36:00,68.6,65.9,30.22,SE,132,0.0,0.0,91,0.00,,,0.00,Wunderground v.1.15,2013-08-25 10:36:00,
2013-08-25 05:41:00,68.9,65.8,30.22,SE,134,0.0,1.0,90,0.00,,,0.00,Wunderground v.1.15,2013-08-25 10:41:00,
2013-08-25 05:46:00,69.0,65.9,30.22,SE,133,0.0,1.0,90,0.00,,,0.00,Wunderground v.1.15,2013-08-25 10:46:00,
2013-08-25 05:51:00,68.9,65.8,30.22,SE,132,0.0,0.0,90,0.00,,,0.00,Wunderground v.1.15,2013-08-25 10:51:00,
2013-08-25 05:56:00,68.7,66.0,30.22,SE,132,0.0,1.0,91,0.00,,,0.00,Wunderground v.1.15,2013-08-25 10:56:00,
2013-08-25 06:01:00,68.6,65.9,30.22,SE,129,0.0,1.0,91,0.00,,,0.00,Wunderground v.1.15,2013-08-25 11:01:00,
2013-08-25 06:06:00,68.6,65.9,30.23,SSE,165,0.0,1.0,91,0.00,,,0.00,Wunderground v.1.15,2013-08-25 11:06:00,
2013-08-25 06:11:00,68.8,66.1,30.23,SE,139,1.0,2.0,91,0.00,,,0.00,Wunderground v.1.15,2013-08-25 11:11:00,
2013-08-25 06:16:00,69.1,66.0,30.23,ESE,112,1.0,3.0,90,0.00,,,0.00,Wunderground v.1.15,2013-08-25 11:16:00,
2013-08-25 06:21:00,69.4,66.3,30.23,ESE,113,1.0,2.0,90,0.00,,,0.00,Wunderground v.1.15,2013-08-25 11:21:00,
2013-08-25 06:26:00,69.6,66.5,30.23,SSE,150,1.0,3.0,90,0.00,,,0.00,Wunderground v.1.15,2013-08-25 11:26:00,
2013-08-25 06:31:00,69.8,66.4,30.23,SSE,162,1.0,3.0,89,0.00,,,0.00,Wunderground v.1.15,2013-08-25 11:31:00,
2013-08-25 06:36:00,69.9,66.5,30.23,SE,137,2.0,3.0,89,0.00,,,0.00,Wunderground v.1.15,2013-08-25 11:36:00,
2013-08-25 06:41:00,70.0,66.6,30.23,SSE,152,4.0,4.0,89,0.00,,,0.00,Wunderground v.1.15,2013-08-25 11:41:00,
2013-08-25 06:46:00,70.2,66.8,30.23,SSE,155,0.0,4.0,89,0.00,,,0.00,Wunderground v.1.15,2013-08-25 11:46:00,
2013-08-25 06:51:00,70.3,66.9,30.24,South,172,4.0,4.0,89,0.00,,,0.00,Wunderground v.1.15,2013-08-25 11:51:00,
2013-08-25 06:56:00,70.6,67.2,30.24,SE,139,2.0,4.0,89,0.00,,,0.00,Wunderground v.1.15,2013-08-25 11:56:00,
2013-08-25 07:01:00,71.0,67.6,30.24,ESE,104,0.0,1.0,89,0.00,,,0.00,Wunderground v.1.15,2013-08-25 12:01:00,
2013-08-25 07:06:00,71.2,67.8,30.24,SSE,151,1.0,1.0,89,0.00,,,0.00,Wunderground v.1.15,2013-08-25 12:06:00,
2013-08-25 07:11:00,71.5,68.1,30.24,SSW,194,0.0,3.0,89,0.00,,,0.00,Wunderground v.1.15,2013-08-25 12:11:00,
2013-08-25 07:16:00,71.6,68.2,30.24,WSW,238,2.0,3.0,89,0.00,,,0.00,Wunderground v.1.15,2013-08-25 12:16:00,
2013-08-25 07:21:00,71.7,68.3,30.24,WSW,245,2.0,4.0,89,0.00,,,0.00,Wunderground v.1.15,2013-08-25 12:21:00,
2013-08-25 07:26:00,72.0,68.6,30.24,SSE,163,0.0,4.0,89,0.00,,,0.00,Wunderground v.1.15,2013-08-25 12:26:00,
2013-08-25 07:31:00,72.3,68.9,30.24,South,171,0.0,1.0,89,0.00,,,0.00,Wunderground v.1.15,2013-08-25 12:31:00,
2013-08-25 07:36:00,72.7,69.3,30.24,South,172,1.0,1.0,89,0.00,,,0.00,Wunderground v.1.15,2013-08-25 12:36:00,
2013-08-25 07:41:00,72.9,69.1,30.24,SSW,195,1.0,2.0,88,0.00,,,0.00,Wunderground v.1.15,2013-08-25 12:41:00,
2013-08-25 07:46:00,73.0,69.2,30.25,SW,231,1.0,4.0,88,0.00,,,0.00,Wunderground v.1.15,2013-08-25 12:46:00,
2013-08-25 07:51:00,73.0,69.6,30.25,SW,221,2.0,2.0,89,0.00,,,0.00,Wunderground v.1.15,2013-08-25 12:51:00,
2013-08-25 07:56:00,73.2,69.8,30.25,SSE,163,1.0,4.0,89,0.00,,,0.00,Wunderground v.1.15,2013-08-25 12:56:00,
2013-08-25 08:01:00,73.6,69.8,30.25,SW,224,4.0,4.0,88,0.00,,,0.00,Wunderground v.1.15,2013-08-25 13:01:00,
2013-08-25 08:06:00,73.8,70.0,30.25,SSW,208,0.0,4.0,88,0.00,,,0.00,Wunderground v.1.15,2013-08-25 13:06:00,
2013-08-25 08:11:00,74.3,70.5,30.25,ESE,122,0.0,4.0,88,0.00,,,0.00,Wunderground v.1.15,2013-08-25 13:11:00,
2013-08-25 08:16:00,74.7,70.9,30.25,WSW,240,1.0,4.0,88,0.00,,,0.00,Wunderground v.1.15,2013-08-25 13:16:00,
2013-08-25 08:21:00,74.9,71.1,30.25,SW,224,1.0,2.0,88,0.00,,,0.00,Wunderground v.1.15,2013-08-25 13:21:00,
2013-08-25 08:26:00,75.3,71.5,30.25,SW,222,2.0,5.0,88,0.00,,,0.00,Wunderground v.1.15,2013-08-25 13:26:00,
2013-08-25 08:31:00,75.6,71.5,30.25,WSW,239,2.0,4.0,87,0.00,,,0.00,Wunderground v.1.15,2013-08-25 13:31:00,
2013-08-25 08:36:00,76.1,71.9,30.25,SSW,200,2.0,5.0,87,0.00,,,0.00,Wunderground v.1.15,2013-08-25 13:36:00,
2013-08-25 08:41:00,76.4,72.2,30.25,SSW,204,1.0,6.0,87,0.00,,,0.00,Wunderground v.1.15,2013-08-25 13:41:00,
2013-08-25 08:46:00,76.7,72.2,30.25,SW,225,0.0,7.0,86,0.00,,,0.00,Wunderground v.1.15,2013-08-25 13:46:00,
2013-08-25 08:51:00,77.0,72.5,30.25,SW,226,3.0,4.0,86,0.00,,,0.00,Wunderground v.1.15,2013-08-25 13:51:00,
2013-08-25 08:56:00,77.4,72.5,30.25,South,172,2.0,6.0,85,0.00,,,0.00,Wunderground v.1.15,2013-08-25 13:56:00,
2013-08-25 09:01:00,77.7,72.8,30.25,SW,217,4.0,5.0,85,0.00,,,0.00,Wunderground v.1.15,2013-08-25 14:01:00,
2013-08-25 09:06:00,77.9,72.7,30.25,SW,235,1.0,5.0,84,0.00,,,0.00,Wunderground v.1.15,2013-08-25 14:06:00,
2013-08-25 09:11:00,78.1,72.9,30.25,SW,222,2.0,6.0,84,0.00,,,0.00,Wunderground v.1.15,2013-08-25 14:11:00,
2013-08-25 09:16:00,78.5,72.9,30.25,SW,214,2.0,7.0,83,0.00,,,0.00,Wunderground v.1.15,2013-08-25 14:16:00,
2013-08-25 09:21:00,78.8,73.6,30.25,SE,142,1.0,2.0,84,0.00,,,0.00,Wunderground v.1.15,2013-08-25 14:21:00,
2013-08-25 09:26:00,79.2,73.2,30.25,WSW,246,3.0,5.0,82,0.00,,,0.00,Wunderground v.1.15,2013-08-25 14:26:00,
2013-08-25 09:31:00,79.3,73.7,30.26,SW,222,2.0,3.0,83,0.00,,,0.00,Wunderground v.1.15,2013-08-25 14:31:00,
2013-08-25 09:36:00,79.7,73.7,30.25,SW,225,5.0,6.0,82,0.00,,,0.00,Wunderground v.1.15,2013-08-25 14:36:00,
2013-08-25 09:41:00,79.9,74.3,30.26,SSE,157,2.0,4.0,83,0.00,,,0.00,Wunderground v.1.15,2013-08-25 14:41:00,
2013-08-25 09:46:00,80.3,74.3,30.26,South,172,0.0,5.0,82,0.00,,,0.00,Wunderground v.1.15,2013-08-25 14:46:00,
2013-08-25 09:51:00,80.7,74.0,30.25,SSE,165,2.0,6.0,80,0.00,,,0.00,Wunderground v.1.15,2013-08-25 14:51:00,
2013-08-25 09:56:00,80.7,74.0,30.26,SSE,159,2.0,6.0,80,0.00,,,0.00,Wunderground v.1.15,2013-08-25 14:56:00,
2013-08-25 10:01:00,80.9,74.1,30.26,SW,224,6.0,6.0,80,0.00,,,0.00,Wunderground v.1.15,2013-08-25 15:01:00,
2013-08-25 10:06:00,81.0,74.2,30.26,SW,224,4.0,6.0,80,0.00,,,0.00,Wunderground v.1.15,2013-08-25 15:06:00,
2013-08-25 10:11:00,81.2,74.1,30.25,SW,233,1.0,5.0,79,0.00,,,0.00,Wunderground v.1.15,2013-08-25 15:11:00,
2013-08-25 10:16:00,81.2,74.4,30.26,WSW,257,3.0,5.0,80,0.00,,,0.00,Wunderground v.1.15,2013-08-25 15:16:00,
2013-08-25 10:21:00,80.9,74.1,30.26,West,279,2.0,3.0,80,0.00,,,0.00,Wunderground v.1.15,2013-08-25 15:21:00,
2013-08-25 10:26:00,81.2,74.8,30.26,WNW,293,3.0,5.0,81,0.00,,,0.00,Wunderground v.1.15,2013-08-25 15:26:00,
2013-08-25 10:31:00,81.6,75.2,30.26,South,184,0.0,2.0,81,0.00,,,0.00,Wunderground v.1.15,2013-08-25 15:31:00,
2013-08-25 10:36:00,81.7,74.5,30.26,SW,236,2.0,7.0,79,0.00,,,0.00,Wunderground v.1.15,2013-08-25 15:36:00,
2013-08-25 10:41:00,81.8,74.6,30.26,SW,219,5.0,6.0,79,0.00,,,0.00,Wunderground v.1.15,2013-08-25 15:41:00,
2013-08-25 10:46:00,81.9,75.1,30.26,SSE,156,2.0,6.0,80,0.00,,,0.00,Wunderground v.1.15,2013-08-25 15:46:00,
2013-08-25 10:51:00,82.0,74.8,30.26,SW,220,3.0,4.0,79,0.00,,,0.00,Wunderground v.1.15,2013-08-25 15:51:00,
2013-08-25 10:56:00,81.7,74.5,30.26,West,261,1.0,4.0,79,0.00,,,0.00,Wunderground v.1.15,2013-08-25 15:56:00,
2013-08-25 11:01:00,81.9,75.1,30.26,West,266,0.0,2.0,80,0.00,,,0.00,Wunderground v.1.15,2013-08-25 16:01:00,
2013-08-25 11:06:00,82.1,74.9,30.26,SSW,204,0.0,4.0,79,0.00,,,0.00,Wunderground v.1.15,2013-08-25 16:06:00,
2013-08-25 11:11:00,82.1,74.9,30.26,SW,234,3.0,3.0,79,0.00,,,0.00,Wunderground v.1.15,2013-08-25 16:11:00,
2013-08-25 11:16:00,82.1,74.9,30.26,SSW,200,1.0,4.0,79,0.00,,,0.00,Wunderground v.1.15,2013-08-25 16:16:00,
2013-08-25 11:21:00,82.5,75.3,30.25,SSE,156,4.0,4.0,79,0.00,,,0.00,Wunderground v.1.15,2013-08-25 16:21:00,
2013-08-25 11:26:00,82.8,74.8,30.25,WSW,255,2.0,4.0,77,0.00,,,0.00,Wunderground v.1.15,2013-08-25 16:26:00,
2013-08-25 11:31:00,82.4,74.8,30.25,SW,226,3.0,3.0,78,0.00,,,0.00,Wunderground v.1.15,2013-08-25 16:31:00,
2013-08-25 11:36:00,82.5,74.9,30.25,West,271,3.0,4.0,78,0.00,,,0.00,Wunderground v.1.15,2013-08-25 16:36:00,
2013-08-25 11:41:00,82.3,75.1,30.25,SSW,211,2.0,5.0,79,0.00,,,0.00,Wunderground v.1.15,2013-08-25 16:41:00,
2013-08-25 11:46:00,82.6,75.8,30.25,SSE,155,1.0,5.0,80,0.00,,,0.00,Wunderground v.1.15,2013-08-25 16:46:00,
2013-08-25 11:51:00,82.7,75.1,30.25,SSW,210,2.0,4.0,78,0.00,,,0.00,Wunderground v.1.15,2013-08-25 16:51:00,
2013-08-25 11:56:00,82.7,75.1,30.25,SSE,159,3.0,5.0,78,0.00,,,0.00,Wunderground v.1.15,2013-08-25 16:56:00,
2013-08-25 12:01:00,82.9,75.3,30.25,SSE,162,2.0,3.0,78,0.00,,,0.00,Wunderground v.1.15,2013-08-25 17:01:00,
2013-08-25 12:06:00,83.2,75.6,30.25,SSW,196,2.0,4.0,78,0.00,,,0.00,Wunderground v.1.15,2013-08-25 17:06:00,
2013-08-25 12:11:00,83.1,75.5,30.25,SSE,150,0.0,4.0,78,0.00,,,0.00,Wunderground v.1.15,2013-08-25 17:11:00,
2013-08-25 12:16:00,83.2,75.2,30.24,SE,133,3.0,4.0,77,0.00,,,0.00,Wunderground v.1.15,2013-08-25 17:16:00,
2013-08-25 12:21:00,82.8,75.2,30.24,ESE,103,1.0,3.0,78,0.00,,,0.00,Wunderground v.1.15,2013-08-25 17:21:00,
2013-08-25 12:26:00,83.2,76.0,30.24,SSE,158,2.0,3.0,79,0.00,,,0.00,Wunderground v.1.15,2013-08-25 17:26:00,
2013-08-25 12:31:00,84.0,76.0,30.24,SSW,210,3.0,3.0,77,0.00,,,0.00,Wunderground v.1.15,2013-08-25 17:31:00,
2013-08-25 12:36:00,84.6,75.8,30.24,South,188,2.0,6.0,75,0.00,,,0.00,Wunderground v.1.15,2013-08-25 17:36:00,
2013-08-25 12:41:00,85.1,75.9,30.23,WSW,250,0.0,3.0,74,0.00,,,0.00,Wunderground v.1.15,2013-08-25 17:41:00,
2013-08-25 12:46:00,85.2,75.6,30.23,West,264,3.0,5.0,73,0.00,,,0.00,Wunderground v.1.15,2013-08-25 17:46:00,
2013-08-25 12:51:00,85.0,75.4,30.23,SE,138,0.0,2.0,73,0.00,,,0.00,Wunderground v.1.15,2013-08-25 17:51:00,
2013-08-25 12:56:00,84.7,75.1,30.23,SSE,159,0.0,5.0,73,0.00,,,0.00,Wunderground v.1.15,2013-08-25 17:56:00,
2013-08-25 13:01:00,84.7,75.5,30.23,SSE,150,2.0,3.0,74,0.00,,,0.00,Wunderground v.1.15,2013-08-25 18:01:00,
2013-08-25 13:06:00,85.2,74.7,30.23,WNW,285,1.0,6.0,71,0.00,,,0.00,Wunderground v.1.15,2013-08-25 18:06:00,
2013-08-25 13:11:00,85.6,75.9,30.22,SSE,148,3.0,5.0,73,0.00,,,0.00,Wunderground v.1.15,2013-08-25 18:11:00,
2013-08-25 13:16:00,85.6,75.5,30.22,SE,145,4.0,6.0,72,0.00,,,0.00,Wunderground v.1.15,2013-08-25 18:16:00,
2013-08-25 13:21:00,85.5,75.9,30.22,SW,221,1.0,3.0,73,0.00,,,0.00,Wunderground v.1.15,2013-08-25 18:21:00,
2013-08-25 13:26:00,85.8,74.9,30.22,SSE,153,3.0,5.0,70,0.00,,,0.00,Wunderground v.1.15,2013-08-25 18:26:00,
2013-08-25 13:31:00,85.6,74.7,30.22,SW,221,2.0,2.0,70,0.00,,,0.00,Wunderground v.1.15,2013-08-25 18:31:00,
2013-08-25 13:36:00,85.5,75.4,30.22,SE,136,3.0,6.0,72,0.00,,,0.00,Wunderground v.1.15,2013-08-25 18:36:00,
2013-08-25 13:41:00,86.0,75.1,30.21,SSE,160,1.0,2.0,70,0.00,,,0.00,Wunderground v.1.15,2013-08-25 18:41:00,
2013-08-25 13:46:00,86.8,75.4,30.21,ESE,113,1.0,3.0,69,0.00,,,0.00,Wunderground v.1.15,2013-08-25 18:46:00,
2013-08-25 13:51:00,87.2,74.5,30.21,South,173,4.0,7.0,66,0.00,,,0.00,Wunderground v.1.15,2013-08-25 18:51:00,
2013-08-25 13:56:00,86.8,75.4,30.21,ESE,103,2.0,7.0,69,0.00,,,0.00,Wunderground v.1.15,2013-08-25 18:56:00,
2013-08-25 14:01:00,87.0,75.2,30.21,SSE,150,4.0,5.0,68,0.00,,,0.00,Wunderground v.1.15,2013-08-25 19:01:00,
2013-08-25 14:06:00,86.9,75.1,30.21,SSW,211,2.0,5.0,68,0.00,,,0.00,Wunderground v.1.15,2013-08-25 19:06:00,
2013-08-25 14:11:00,87.2,75.8,30.21,SSE,147,0.0,3.0,69,0.00,,,0.00,Wunderground v.1.15,2013-08-25 19:11:00,
2013-08-25 14:16:00,88.1,76.2,30.20,SSE,159,2.0,4.0,68,0.00,,,0.00,Wunderground v.1.15,2013-08-25 19:16:00,
2013-08-25 14:21:00,88.1,75.3,30.20,ESE,103,4.0,5.0,66,0.00,,,0.00,Wunderground v.1.15,2013-08-25 19:21:00,
2013-08-25 14:26:00,87.9,75.1,30.20,ESE,119,3.0,6.0,66,0.00,,,0.00,Wunderground v.1.15,2013-08-25 19:26:00,
2013-08-25 14:31:00,88.1,74.8,30.20,SSE,162,1.0,3.0,65,0.00,,,0.00,Wunderground v.1.15,2013-08-25 19:31:00,
2013-08-25 14:36:00,88.5,75.2,30.20,SSW,195,2.0,3.0,65,0.00,,,0.00,Wunderground v.1.15,2013-08-25 19:36:00,
2013-08-25 14:41:00,88.6,74.9,30.20,SE,136,2.0,2.0,64,0.00,,,0.00,Wunderground v.1.15,2013-08-25 19:41:00,
2013-08-25 14:46:00,89.1,74.9,30.19,SE,140,5.0,5.0,63,0.00,,,0.00,Wunderground v.1.15,2013-08-25 19:46:00,
2013-08-25 14:51:00,89.2,74.5,30.19,SE,132,4.0,4.0,62,0.00,,,0.00,Wunderground v.1.15,2013-08-25 19:51:00,
2013-08-25 14:56:00,89.2,75.0,30.19,SE,132,3.0,4.0,63,0.00,,,0.00,Wunderground v.1.15,2013-08-25 19:56:00,
2013-08-25 15:01:00,89.4,76.1,30.19,WSW,244,1.0,2.0,65,0.00,,,0.00,Wunderground v.1.15,2013-08-25 20:01:00,
2013-08-25 15:06:00,89.6,74.9,30.19,SE,144,2.0,5.0,62,0.00,,,0.00,Wunderground v.1.15,2013-08-25 20:06:00,
2013-08-25 15:11:00,88.9,74.2,30.19,SSE,166,2.0,4.0,62,0.00,,,0.00,Wunderground v.1.15,2013-08-25 20:11:00,
2013-08-25 15:16:00,87.9,74.7,30.19,SSE,158,3.0,5.0,65,0.00,,,0.00,Wunderground v.1.15,2013-08-25 20:16:00,
2013-08-25 15:21:00,87.4,74.2,30.19,SE,144,4.0,6.0,65,0.00,,,0.00,Wunderground v.1.15,2013-08-25 20:21:00,
2013-08-25 15:26:00,87.5,75.2,30.19,South,172,2.0,6.0,67,0.00,,,0.00,Wunderground v.1.15,2013-08-25 20:26:00,
2013-08-25 15:31:00,86.9,75.1,30.19,SE,138,1.0,5.0,68,0.00,,,0.00,Wunderground v.1.15,2013-08-25 20:31:00,
2013-08-25 15:36:00,86.5,75.5,30.19,SSE,156,3.0,7.0,70,0.00,,,0.00,Wunderground v.1.15,2013-08-25 20:36:00,
2013-08-25 15:41:00,86.3,74.9,30.18,East,92,1.0,5.0,69,0.00,,,0.00,Wunderground v.1.15,2013-08-25 20:41:00,
2013-08-25 15:46:00,86.3,74.5,30.19,ESE,120,1.0,5.0,68,0.00,,,0.00,Wunderground v.1.15,2013-08-25 20:46:00,
2013-08-25 15:51:00,87.0,75.6,30.18,SE,143,4.0,4.0,69,0.00,,,0.00,Wunderground v.1.15,2013-08-25 20:51:00,
2013-08-25 15:56:00,87.4,75.1,30.18,ESE,122,1.0,5.0,67,0.00,,,0.00,Wunderground v.1.15,2013-08-25 20:56:00,
2013-08-25 16:01:00,87.0,74.7,30.18,SE,138,4.0,8.0,67,0.00,,,0.00,Wunderground v.1.15,2013-08-25 21:01:00,
2013-08-25 16:06:00,86.0,75.5,30.18,ESE,117,2.0,8.0,71,0.00,,,0.00,Wunderground v.1.15,2013-08-25 21:06:00,
2013-08-25 16:11:00,85.5,75.9,30.18,ESE,114,2.0,3.0,73,0.00,,,0.00,Wunderground v.1.15,2013-08-25 21:11:00,
2013-08-25 16:16:00,85.1,76.3,30.18,ESE,106,3.0,3.0,75,0.00,,,0.00,Wunderground v.1.15,2013-08-25 21:16:00,
2013-08-25 16:21:00,84.9,75.3,30.18,SSE,147,2.0,3.0,73,0.00,,,0.00,Wunderground v.1.15,2013-08-25 21:21:00,
2013-08-25 16:26:00,84.8,75.2,30.18,SE,141,2.0,4.0,73,0.00,,,0.00,Wunderground v.1.15,2013-08-25 21:26:00,
2013-08-25 16:31:00,84.6,75.0,30.19,SE,142,1.0,1.0,73,0.00,,,0.00,Wunderground v.1.15,2013-08-25 21:31:00,
2013-08-25 16:36:00,84.5,75.3,30.18,SE,132,1.0,2.0,74,0.00,,,0.00,Wunderground v.1.15,2013-08-25 21:36:00,
2013-08-25 16:41:00,84.4,75.6,30.18,SSE,149,0.0,2.0,75,0.00,,,0.00,Wunderground v.1.15,2013-08-25 21:41:00,
2013-08-25 16:46:00,84.5,75.3,30.18,SSE,150,1.0,6.0,74,0.00,,,0.00,Wunderground v.1.15,2013-08-25 21:46:00,
2013-08-25 16:51:00,85.0,75.0,30.18,South,169,0.0,5.0,72,0.00,,,0.00,Wunderground v.1.15,2013-08-25 21:51:00,
2013-08-25 16:56:00,85.3,74.8,30.18,SSE,153,2.0,5.0,71,0.00,,,0.00,Wunderground v.1.15,2013-08-25 21:56:00,
2013-08-25 17:01:00,84.9,74.4,30.18,SSE,149,2.0,3.0,71,0.00,,,0.00,Wunderground v.1.15,2013-08-25 22:01:00,
2013-08-25 17:06:00,84.5,74.5,30.18,SSE,159,2.0,4.0,72,0.00,,,0.00,Wunderground v.1.15,2013-08-25 22:06:00,
2013-08-25 17:11:00,84.3,74.7,30.18,SE,133,2.0,2.0,73,0.00,,,0.00,Wunderground v.1.15,2013-08-25 22:11:00,
2013-08-25 17:16:00,84.2,75.0,30.18,ESE,112,0.0,2.0,74,0.00,,,0.00,Wunderground v.1.15,2013-08-25 22:16:00,
2013-08-25 17:21:00,84.1,74.9,30.18,ESE,102,0.0,1.0,74,0.00,,,0.00,Wunderground v.1.15,2013-08-25 22:21:00,
2013-08-25 17:26:00,84.2,75.0,30.18,ESE,104,0.0,1.0,74,0.00,,,0.00,Wunderground v.1.15,2013-08-25 22:26:00,
2013-08-25 17:31:00,84.1,75.3,30.18,ESE,105,0.0,0.0,75,0.00,,,0.00,Wunderground v.1.15,2013-08-25 22:31:00,
2013-08-25 17:36:00,84.0,74.8,30.18,ESE,110,1.0,1.0,74,0.00,,,0.00,Wunderground v.1.15,2013-08-25 22:36:00,
2013-08-25 17:41:00,83.9,75.9,30.18,ESE,119,0.0,0.0,77,0.00,,,0.00,Wunderground v.1.15,2013-08-25 22:41:00,
2013-08-25 17:46:00,83.7,75.7,30.18,ESE,118,0.0,1.0,77,0.00,,,0.00,Wunderground v.1.15,2013-08-25 22:46:00,
2013-08-25 17:51:00,83.5,75.9,30.18,ESE,118,0.0,0.0,78,0.00,,,0.00,Wunderground v.1.15,2013-08-25 22:51:00,
2013-08-25 17:56:00,83.5,75.5,30.18,ESE,118,0.0,0.0,77,0.00,,,0.00,Wunderground v.1.15,2013-08-25 22:56:00,
2013-08-25 18:01:00,83.7,76.5,30.18,ESE,118,0.0,0.0,79,0.00,,,0.00,Wunderground v.1.15,2013-08-25 23:01:00,
2013-08-25 18:06:00,83.8,75.4,30.18,ESE,118,0.0,0.0,76,0.00,,,0.00,Wunderground v.1.15,2013-08-25 23:06:00,
2013-08-25 18:11:00,84.2,76.2,30.18,ESE,119,0.0,0.0,77,0.00,,,0.00,Wunderground v.1.15,2013-08-25 23:11:00,
2013-08-25 18:16:00,84.4,75.6,30.18,SE,145,1.0,1.0,75,0.00,,,0.00,Wunderground v.1.15,2013-08-25 23:16:00,
2013-08-25 18:21:00,84.5,76.5,30.18,SE,135,0.0,1.0,77,0.00,,,0.00,Wunderground v.1.15,2013-08-25 23:21:00,
2013-08-25 18:26:00,84.5,75.7,30.18,SE,144,0.0,2.0,75,0.00,,,0.00,Wunderground v.1.15,2013-08-25 23:26:00,
2013-08-25 18:31:00,84.5,76.5,30.18,SE,146,0.0,1.0,77,0.00,,,0.00,Wunderground v.1.15,2013-08-25 23:31:00,
2013-08-25 18:36:00,84.4,76.0,30.18,SE,145,0.0,1.0,76,0.00,,,0.00,Wunderground v.1.15,2013-08-25 23:36:00,
2013-08-25 18:41:00,84.4,75.6,30.18,SSE,155,1.0,1.0,75,0.00,,,0.00,Wunderground v.1.15,2013-08-25 23:41:00,
2013-08-25 18:46:00,84.5,76.1,30.18,SE,139,0.0,1.0,76,0.00,,,0.00,Wunderground v.1.15,2013-08-25 23:46:00,
2013-08-25 18:51:00,84.4,75.6,30.17,SE,141,2.0,2.0,75,0.00,,,0.00,Wunderground v.1.15,2013-08-25 23:51:00,
2013-08-25 18:56:00,83.9,75.5,30.17,SSE,153,0.0,2.0,76,0.00,,,0.00,Wunderground v.1.15,2013-08-25 23:56:00,
2013-08-25 19:01:00,83.8,75.4,30.18,SSE,153,0.0,1.0,76,0.00,,,0.00,Wunderground v.1.15,2013-08-26 00:01:00,
2013-08-25 19:06:00,83.5,75.5,30.18,SSE,151,0.0,1.0,77,0.00,,,0.00,Wunderground v.1.15,2013-08-26 00:06:00,
2013-08-25 19:11:00,83.2,75.2,30.18,SSE,150,0.0,0.0,77,0.00,,,0.00,Wunderground v.1.15,2013-08-26 00:11:00,
2013-08-25 19:16:00,82.5,74.6,30.18,SE,139,0.0,1.0,77,0.00,,,0.00,Wunderground v.1.15,2013-08-26 00:16:00,
2013-08-25 19:21:00,81.9,74.7,30.18,SE,143,0.0,0.0,79,0.00,,,0.00,Wunderground v.1.15,2013-08-26 00:21:00,
2013-08-25 19:26:00,81.3,74.5,30.18,SE,143,0.0,0.0,80,0.00,,,0.00,Wunderground v.1.15,2013-08-26 00:26:00,
2013-08-25 19:31:00,80.6,74.6,30.18,SE,144,0.0,0.0,82,0.00,,,0.00,Wunderground v.1.15,2013-08-26 00:31:00,
2013-08-25 19:36:00,80.1,74.5,30.18,SE,143,0.0,0.0,83,0.00,,,0.00,Wunderground v.1.15,2013-08-26 00:36:00,
2013-08-25 19:41:00,79.6,74.3,30.18,SE,144,0.0,0.0,84,0.00,,,0.00,Wunderground v.1.15,2013-08-26 00:41:00,
2013-08-25 19:46:00,79.1,74.2,30.19,SE,135,0.0,1.0,85,0.00,,,0.00,Wunderground v.1.15,2013-08-26 00:46:00,
2013-08-25 19:51:00,79.1,73.8,30.19,SE,133,1.0,2.0,84,0.00,,,0.00,Wunderground v.1.15,2013-08-26 00:51:00,
2013-08-25 19:56:00,79.1,73.8,30.19,ESE,110,0.0,2.0,84,0.00,,,0.00,Wunderground v.1.15,2013-08-26 00:56:00,
2013-08-25 20:01:00,78.8,73.9,30.19,ESE,110,0.0,0.0,85,0.00,,,0.00,Wunderground v.1.15,2013-08-26 01:01:00,
2013-08-25 20:06:00,78.5,74.0,30.19,SE,125,0.0,1.0,86,0.00,,,0.00,Wunderground v.1.15,2013-08-26 01:06:00,
2013-08-25 20:11:00,78.0,73.8,30.19,SE,124,0.0,0.0,87,0.00,,,0.00,Wunderground v.1.15,2013-08-26 01:11:00,
2013-08-25 20:16:00,77.8,73.6,30.19,ESE,122,0.0,1.0,87,0.00,,,0.00,Wunderground v.1.15,2013-08-26 01:16:00,
2013-08-25 20:21:00,77.7,73.5,30.19,ESE,122,0.0,0.0,87,0.00,,,0.00,Wunderground v.1.15,2013-08-26 01:21:00,
2013-08-25 20:26:00,77.3,73.5,30.19,SE,124,0.0,0.0,88,0.00,,,0.00,Wunderground v.1.15,2013-08-26 01:26:00,
2013-08-25 20:31:00,76.9,73.1,30.19,SE,124,0.0,1.0,88,0.00,,,0.00,Wunderground v.1.15,2013-08-26 01:31:00,
2013-08-25 20:36:00,76.5,73.0,30.20,SE,138,1.0,1.0,89,0.00,,,0.00,Wunderground v.1.15,2013-08-26 01:36:00,
2013-08-25 20:41:00,76.5,73.0,30.20,SE,138,0.0,0.0,89,0.00,,,0.00,Wunderground v.1.15,2013-08-26 01:41:00,
2013-08-25 20:46:00,76.6,72.8,30.20,SE,139,0.0,0.0,88,0.00,,,0.00,Wunderground v.1.15,2013-08-26 01:46:00,
2013-08-25 20:51:00,76.4,72.6,30.20,SE,138,0.0,0.0,88,0.00,,,0.00,Wunderground v.1.15,2013-08-26 01:51:00,
2013-08-25 20:56:00,76.2,73.1,30.21,SE,132,0.0,1.0,90,0.00,,,0.00,Wunderground v.1.15,2013-08-26 01:56:00,
2013-08-25 21:01:00,76.1,73.0,30.21,SE,133,0.0,0.0,90,0.00,,,0.00,Wunderground v.1.15,2013-08-26 02:01:00,
2013-08-25 21:06:00,75.8,72.7,30.21,SE,132,0.0,0.0,90,0.00,,,0.00,Wunderground v.1.15,2013-08-26 02:06:00,
2013-08-25 21:11:00,75.5,72.4,30.22,SE,133,0.0,0.0,90,0.00,,,0.00,Wunderground v.1.15,2013-08-26 02:11:00,
2013-08-25 21:16:00,75.2,72.4,30.22,SE,132,0.0,0.0,91,0.00,,,0.00,Wunderground v.1.15,2013-08-26 02:16:00,
2013-08-25 21:21:00,75.0,72.5,30.22,SE,133,0.0,0.0,92,0.00,,,0.00,Wunderground v.1.15,2013-08-26 02:21:00,
2013-08-25 21:26:00,74.9,72.4,30.22,SE,132,0.0,0.0,92,0.00,,,0.00,Wunderground v.1.15,2013-08-26 02:26:00,
2013-08-25 21:31:00,74.8,72.3,30.22,SE,132,0.0,0.0,92,0.00,,,0.00,Wunderground v.1.15,2013-08-26 02:31:00,
2013-08-25 21:36:00,74.6,72.4,30.22,SE,132,0.0,0.0,93,0.00,,,0.00,Wunderground v.1.15,2013-08-26 02:36:00,
2013-08-25 21:41:00,74.6,72.4,30.22,SE,132,0.0,0.0,93,0.00,,,0.00,Wunderground v.1.15,2013-08-26 02:41:00,
2013-08-25 21:46:00,74.8,72.6,30.22,SE,133,1.0,2.0,93,0.00,,,0.00,Wunderground v.1.15,2013-08-26 02:46:00,
2013-08-25 21:51:00,75.2,72.7,30.22,SE,141,0.0,1.0,92,0.00,,,0.00,Wunderground v.1.15,2013-08-26 02:51:00,
2013-08-25 21:56:00,75.1,72.3,30.23,SE,141,0.0,1.0,91,0.00,,,0.00,Wunderground v.1.15,2013-08-26 02:56:00,
2013-08-25 22:01:00,74.8,72.3,30.23,SE,141,0.0,0.0,92,0.00,,,0.00,Wunderground v.1.15,2013-08-26 03:01:00,
2013-08-25 22:06:00,74.5,72.3,30.23,SE,142,0.0,0.0,93,0.00,,,0.00,Wunderground v.1.15,2013-08-26 03:06:00,
2013-08-25 22:11:00,74.2,72.0,30.23,SE,142,0.0,0.0,93,0.00,,,0.00,Wunderground v.1.15,2013-08-26 03:11:00,
2013-08-25 22:16:00,74.0,71.8,30.23,SE,143,0.0,0.0,93,0.00,,,0.00,Wunderground v.1.15,2013-08-26 03:16:00,
2013-08-25 22:21:00,73.7,71.5,30.23,SE,142,0.0,0.0,93,0.00,,,0.00,Wunderground v.1.15,2013-08-26 03:21:00,
2013-08-25 22:26:00,73.6,71.8,30.22,SE,142,0.0,0.0,94,0.00,,,0.00,Wunderground v.1.15,2013-08-26 03:26:00,
2013-08-25 22:31:00,73.6,71.8,30.22,SE,142,0.0,0.0,94,0.00,,,0.00,Wunderground v.1.15,2013-08-26 03:31:00,
2013-08-25 22:36:00,73.5,71.7,30.23,SE,143,0.0,0.0,94,0.00,,,0.00,Wunderground v.1.15,2013-08-26 03:36:00,
2013-08-25 22:41:00,73.5,71.7,30.23,SE,143,0.0,0.0,94,0.00,,,0.00,Wunderground v.1.15,2013-08-26 03:41:00,
2013-08-25 22:46:00,73.5,71.7,30.22,SE,142,0.0,0.0,94,0.00,,,0.00,Wunderground v.1.15,2013-08-26 03:46:00,
2013-08-25 22:51:00,73.5,71.7,30.22,SE,142,0.0,0.0,94,0.00,,,0.00,Wunderground v.1.15,2013-08-26 03:51:00,
2013-08-25 22:56:00,73.3,71.5,30.23,SE,142,0.0,0.0,94,0.00,,,0.00,Wunderground v.1.15,2013-08-26 03:56:00,
2013-08-25 23:01:00,73.1,71.3,30.23,SE,142,0.0,0.0,94,0.00,,,0.00,Wunderground v.1.15,2013-08-26 04:01:00,
2013-08-25 23:06:00,73.0,71.2,30.22,SE,142,0.0,0.0,94,0.00,,,0.00,Wunderground v.1.15,2013-08-26 04:06:00,
2013-08-25 23:11:00,72.8,71.0,30.22,SE,142,0.0,0.0,94,0.00,,,0.00,Wunderground v.1.15,2013-08-26 04:11:00,
2013-08-25 23:16:00,72.6,70.8,30.22,SE,142,0.0,0.0,94,0.00,,,0.00,Wunderground v.1.15,2013-08-26 04:16:00,
2013-08-25 23:21:00,72.5,71.0,30.23,SE,143,0.0,0.0,95,0.00,,,0.00,Wunderground v.1.15,2013-08-26 04:21:00,
2013-08-25 23:26:00,72.4,70.9,30.22,SE,143,0.0,0.0,95,0.00,,,0.00,Wunderground v.1.15,2013-08-26 04:26:00,
2013-08-25 23:31:00,72.3,70.8,30.22,SE,143,0.0,0.0,95,0.00,,,0.00,Wunderground v.1.15,2013-08-26 04:31:00,
2013-08-25 23:36:00,72.2,70.7,30.23,SE,143,0.0,0.0,95,0.00,,,0.00,Wunderground v.1.15,2013-08-26 04:36:00,
2013-08-25 23:41:00,72.2,71.0,30.22,SE,142,0.0,0.0,96,0.00,,,0.00,Wunderground v.1.15,2013-08-26 04:41:00,
2013-08-25 23:46:00,72.3,71.1,30.22,SE,143,0.0,1.0,96,0.00,,,0.00,Wunderground v.1.15,2013-08-26 04:46:00,
2013-08-25 23:51:00,72.7,71.5,30.22,SE,145,1.0,1.0,96,0.00,,,0.00,Wunderground v.1.15,2013-08-26 04:51:00,
2013-08-25 23:56:00,73.0,71.5,30.22,SSE,152,0.0,1.0,95,0.00,,,0.00,Wunderground v.1.15,2013-08-26 04:56:00,